{"data":{"norad_id":65807,"epoch":"2026-09-20T13:49:49.174176Z","epoch_age_seconds":99565,"freshness":"FRESH","line1":"1 65807U 25218S   26263.57626359  .00011635  00000+0  36200-3 0  9995","line2":"2 65807  97.2813 120.9227 0001288  66.1328 294.0049 15.33459302 54334","mean_motion":15.33459302,"eccentricity":0.0001288,"inclination_deg":97.2813,"raan_deg":120.9227,"arg_perigee_deg":66.1328,"mean_anomaly_deg":294.0049,"bstar":0.000362,"rev_number":5433,"period_min":93.90532882887,"perigee_km":464.61916159344,"apogee_km":466.3820826449,"semimajor_km":6843.6376221192,"source":"CELESTRAK","updated_at":"2026-09-21T09:00:35.716747Z"}}